Regional Weather Roundup
Issued by NWS

Home | Current Version | Previous Version | Graphics & Text | Print | Product List | Glossary On
Versions: 1 2 3 4 5 6 7 8 9 10 11 12 13 14 15 16 17 18 19 20 21 22 23 24 25 26 27 28 29 30 31 32 33 34 35 36 37 38 39 40 41 42 43 44 45 46 47 48 49 50
000
ASUS44 KMEG 060910
RWRTN
TENNESSEE HOURLY STATE WEATHER ROUNDUP
NATIONAL WEATHER SERVICE MEMPHIS TN
400 AM CDT FRI MAY 06 2016

TNZ002-004-019-021-049-052-054-088>092-061000-
WEST TENNESSEE

CITY           SKY/WX    TMP DP  RH WIND       PRES   REMARKS
MEMPHIS INTL   PTCLDY    51  44  77 CALM      30.04R
NWS MEMPHIS      N/A     46 N/A N/A MISG        N/A
JACKSON        CLEAR     43  41  93 CALM      30.02S
DYERSBURG      CLEAR     46  45  93 CALM      30.03S
UNION CITY     CLEAR     45  45 100 CALM      30.01R
LEXINGTON      CLEAR     39  39 100 CALM      29.99S
$$

TNZ008-025-027-028-033-062-065-066-061000-
NORTH MIDDLE TENNESSEE

CITY           SKY/WX    TMP DP  RH WIND       PRES   REMARKS
NASHVILLE      CLEAR     48  43  82 W5        29.97R
CLARKSVILLE    CLEAR     45  42  89 NW3       29.99R
SMYRNA         CLEAR     46  44  93 VRB3      29.97S
COOKEVILLE     CLEAR     39  39 100 CALM      29.92S
CROSSVILLE     CLEAR     46  42  86 NW9       29.91S
$$

TNZ061-075-076-078-094-096-097-061000-
SOUTH MIDDLE TENNESSEE

CITY           SKY/WX    TMP DP  RH WIND       PRES   REMARKS
TULLAHOMA      CLEAR     43  43 100 NW5       29.95S
WINCHESTER     CLEAR     41  39  93 CALM      29.96S
MCMINNVILLE    CLEAR     41  41 100 CALM      29.94S
COLUMBIA       CLEAR    N/A N/A N/A SW3       29.96S
SHELBYVILLE    CLEAR     41  41 100 CALM      29.97S
$$

TNZ017-018-042-046-047-061000-
NORTHEAST TENNESSEE

CITY           SKY/WX    TMP DP  RH WIND       PRES   REMARKS
TRI CITIES     CLOUDY    49  44  83 W6        29.83R
$$

TNZ012-013-036-069-073-074-061000-
CENTRAL EAST TENNESSEE

CITY           SKY/WX    TMP DP  RH WIND       PRES   REMARKS
KNOXVILLE      PTCLDY    46  43  89 SW7       29.90R
OAK RIDGE      CLEAR     51  42  71 NW5       29.91R
GATLINBURG     CLOUDY    48  43  81 SW3       29.89S
MORRISTOWN     CLOUDY    48  45  87 W5        29.87R
$$

TNZ083-085-099-061000-
SOUTHEAST TENNESSEE

CITY           SKY/WX    TMP DP  RH WIND       PRES   REMARKS
CHATTANOOGA    CLEAR     44  41  89 CALM      29.92S
$$

SKY/WX REPORTED AS FAIR MEANS FEW OR NO CLOUDS BELOW
12 THOUSAND FEET.




USA.gov is the U.S. government's official web portal to all federal, state and local government web resources and services.